EW7948 Weather Reports


Display with metric or nautical units.
time (UTC)temp
F
wind
direction
speed
MPH
gust
MPH
rain 1hr
in
rain 24hr
in
rain mn
in
humidity
%
barometer
mb
20260905083050 72 103 0.0 3.0 0.00 0.00 0.00 38 1004.0
20260905081552 72 103 3.0 6.0 0.00 0.00 0.00 36 1004.1
20260905080053 70 65 0.0 2.0 0.00 0.00 0.00 42 1004.0
20260905074545 70 64 0.0 4.0 0.00 0.00 0.00 46 1003.9
20260905073042 69 49 0.0 0.0 0.00 0.00 0.00 48 1003.9
20260905071541 68 49 0.0 0.0 0.00 0.00 0.00 49 1003.8
20260905070039 68 50 0.0 0.0 0.00 0.00 0.00 44 1003.3
20260905064545 69 49 0.0 2.0 0.00 0.00 0.00 46 1003.4
20260905063038 69 34 0.0 1.0 0.00 0.00 0.00 45 1003.2
20260905061532 69 34 0.0 0.0 0.00 0.00 0.00 48 1003.1
20260905060035 70 34 0.0 0.0 0.00 0.00 0.00 48 1003.0
20260905054510 71 34 0.0 4.0 0.00 0.00 0.00 44 1003.0
20260905053012 71 34 3.0 5.0 0.00 0.00 0.00 42 1003.0
20260905051503 73 360 4.0 5.0 0.00 0.00 0.00 42 1002.9
20260905050004 76 168 0.0 2.0 0.00 0.00 0.00 38 1003.0
20260905044503 78 168 0.0 1.0 0.00 0.00 0.00 33 1003.0
20260905043003 78 168 0.0 0.0 0.00 0.00 0.00 29 1003.0
20260905041502 79 168 0.0 0.0 0.00 0.00 0.00 28 1003.0
20260905040101 80 168 0.0 0.0 0.00 0.00 0.00 27 1003.0
20260905040001 80 168 0.0 0.0 0.00 0.00 0.00 27 1003.0
20260905034606 81 168 0.0 0.0 0.00 0.00 0.00 27 1003.0
20260905033103 82 168 0.0 0.0 0.00 0.00 0.00 25 1002.9
20260905031559 82 168 0.0 2.0 0.00 0.00 0.00 25 1002.8
20260905030121 83 164 1.0 3.0 0.00 0.00 0.00 25 1002.5
20260905024559 83 164 1.0 5.0 0.00 0.00 0.00 24 1002.4
20260905023058 84 176 2.0 6.0 0.00 0.00 0.00 23 1002.3
20260905021557 85 176 1.0 7.0 0.00 0.00 0.00 22 1002.2
20260905020105 86 171 2.0 11.0 0.00 0.00 0.00 21 1002.1
20260905014556 87 194 6.0 12.0 0.00 0.00 0.00 20 1002.1
20260905013054 88 183 5.0 13.0 0.00 0.00 0.00 20 1002.1
20260905011554 88 209 6.0 15.0 0.00 0.00 0.00 19 1002.1
20260905010101 89 200 4.0 14.0 0.00 0.00 0.00 19 1002.1
20260905004609 90 204 3.0 10.0 0.00 0.00 0.00 19 1002.0
20260905003052 90 163 6.0 12.0 0.00 0.00 0.00 19 1002.1
20260905001551 90 230 4.0 13.0 0.00 0.00 0.00 19 1002.0
20260905000051 91 179 6.0 14.0 0.00 0.00 0.00 19 1002.2
20260904234550 91 224 5.0 16.0 0.00 0.00 0.00 17 1002.2
20260904233053 91 225 9.0 15.0 0.00 0.00 0.00 17 1002.2
20260904231548 91 205 8.0 15.0 0.00 0.00 0.00 17 1002.3
20260904230149 91 213 9.0 15.0 0.00 0.00 0.00 17 1002.3
20260904224550 92 157 6.0 20.0 0.00 0.00 0.00 18 1002.4
20260904223046 92 198 7.0 19.0 0.00 0.00 0.00 18 1002.5
20260904221549 92 211 7.0 17.0 0.00 0.00 0.00 17 1002.5
20260904220046 91 193 11.0 22.0 0.00 0.00 0.00 17 1002.6
20260904214544 92 158 8.0 19.0 0.00 0.00 0.00 16 1002.8
20260904213044 91 182 10.0 20.0 0.00 0.00 0.00 16 1003.0
20260904211542 92 186 10.0 18.0 0.00 0.00 0.00 16 1003.0
20260904210049 91 226 10.0 25.0 0.00 0.00 0.00 18 1003.2
20260904204540 91 188 11.0 18.0 0.00 0.00 0.00 20 1003.3
20260904203040 91 205 11.0 18.0 0.00 0.00 0.00 19 1003.3
20260904201538 90 185 12.0 21.0 0.00 0.00 0.00 19 1003.5
20260904200035 90 264 5.0 23.0 0.00 0.00 0.00 20 1003.6
20260904194533 90 234 7.0 21.0 0.00 0.00 0.00 21 1003.9
20260904193033 90 213 11.0 20.0 0.00 0.00 0.00 21 1003.9
20260904191529 89 237 8.0 24.0 0.00 0.00 0.00 24 1003.8
20260904190029 89 205 7.0 17.0 0.00 0.00 0.00 26 1004.1
20260904184527 88 182 8.0 15.0 0.00 0.00 0.00 26 1004.4
20260904183028 88 218 11.0 20.0 0.00 0.00 0.00 27 1004.6
20260904181524 88 204 10.0 19.0 0.00 0.00 0.00 26 1004.7
20260904180022 87 170 9.0 20.0 0.00 0.00 0.00 29 1004.7
20260904174520 87 186 8.0 20.0 0.00 0.00 0.00 29 1005.0
20260904173017 86 178 3.0 15.0 0.00 0.00 0.00 32 1005.0
20260904171514 85 171 10.0 21.0 0.00 0.00 0.00 33 1005.0
20260904170017 85 168 11.0 17.0 0.00 0.00 0.00 33 1005.1
20260904164512 85 176 5.0 15.0 0.00 0.00 0.00 35 1005.1
20260904163009 84 165 3.0 8.0 0.00 0.00 0.00 34 1005.1
20260904161506 82 118 0.0 6.0 0.00 0.00 0.00 35 1005.2
20260904160008 82 205 0.0 6.0 0.00 0.00 0.00 35 1005.3
20260904154501 81 171 2.0 7.0 0.00 0.00 0.00 36 1005.4
20260904153122 79 157 3.0 6.0 0.00 0.00 0.00 36 1005.4
20260904151552 77 167 1.0 5.0 0.00 0.00 0.00 38 1005.4
20260904150049 75 166 1.0 4.0 0.00 0.00 0.00 39 1005.5
20260904144545 74 164 0.0 1.0 0.00 0.00 0.00 39 1005.6
20260904143038 71 164 0.0 3.0 0.00 0.00 0.00 42 1005.5
20260904141541 70 164 2.0 6.0 0.00 0.00 0.00 44 1005.4
20260904140037 67 154 2.0 6.0 0.00 0.00 0.00 48 1005.3
20260904134536 65 157 0.0 1.0 0.00 0.00 0.00 52 1005.1
20260904133033 64 157 0.0 2.0 0.00 0.00 0.00 53 1004.9
20260904131539 62 157 0.0 3.0 0.00 0.00 0.00 55 1004.6
20260904130037 60 157 3.0 6.0 0.00 0.00 0.00 61 1004.4
20260904124530 60 241 2.0 7.0 0.00 0.00 0.00 65 1004.4
20260904123029 60 177 0.0 3.0 0.00 0.00 0.00 67 1004.3
20260904121526 60 176 0.0 4.0 0.00 0.00 0.00 62 1003.9
20260904120024 60 139 0.0 4.0 0.00 0.00 0.00 63 1003.8
20260904114523 60 140 0.0 0.0 0.00 0.00 0.00 65 1003.7
20260904113025 60 140 0.0 1.0 0.00 0.00 0.00 64 1003.4
20260904111519 61 140 0.0 1.0 0.00 0.00 0.00 67 1003.3
20260904110017 61 140 0.0 1.0 0.00 0.00 0.00 67 1003.1
20260904104515 61 140 0.0 2.0 0.00 0.00 0.00 63 1002.9
20260904103012 62 140 0.0 1.0 0.00 0.00 0.00 64 1002.9
20260904101610 62 140 0.0 0.0 0.00 0.00 0.00 61 1002.7
20260904100008 62 140 0.0 0.0 0.00 0.00 0.00 58 1002.6
20260904094505 63 140 0.0 2.0 0.00 0.00 0.00 59 1002.6
20260904093003 63 140 0.0 2.0 0.00 0.00 0.00 57 1002.4
20260904091501 64 140 0.0 2.0 0.00 0.00 0.00 58 1002.3
20260904090057 65 140 0.0 2.0 0.00 0.00 0.00 55 1002.2
20260904084556 66 140 0.0 2.0 0.00 0.00 0.00 52 1002.2